Página principal
METAR-TAF:

METAR-TAF

Aeroportos :

Poteau, Oklahoma, Estados Unidos

latitude: 35-01-18N, longitude: 094-37-17W, altura: 138 m

Observação actual do tempo

O boletim foi feito há 29 minutos, às 17:15 UTC
Vento 9 kt de su-sudoeste
Temperatura 5°C
Humidade 75%
Pressão 1015 hPa
Visibilidade: 16.1 km
Nuvens fragmentadasa uma altura de 1800 ft

METAR: KRKR 201715Z AUTO 21009KT 10SM BKN018 05/01 A2997 RMK AO2

Hora: 11:44 (17:44 UTC)


TAF: em falta

Observações e previsões do tempo de mais de 4000 aeroportos (mensagens METAR e TAF).

As estações disponíveis são os pontos amarelos e vermelhos sobre o mapa.

Mova o rato sobre o mapa para ver o nome da estação.

Depois clique no ponto para visualizar as observações e previsões meteorológicas.

Para alterar o mapa : clique nos botões verdes com uma cruz preta para aumentar o zoom; no botão verde com uma pitada de zoom; ou nas setas verdes para mapas adjacentes.


METAR-TAF: